[[{"header":{"parameterUnit":"m.s-1","parameterCategory":1,"la1":30.2991,"la2":30.254,"lo1":-89.0895,"lo2":-89.0444,"dy":0.0017,"dx":0.0017,"nx":28,"ny":28,"refTime":"2024-02-20T03:00:00:Z","depth":0,"parameterNumber":2,"parameterNumberName":"U-component_of_WINDS"},"data":[0,0,0,0,0,0,0,0,0,0,0,0,0,0,0,0,0,0,0,0,0,0,0,0,0,0,0,0,0,0,0,0,0,0,0,0,0,0,0,0,0,0,0,0,0,0,0,0,0,0,0,0,0,0,0,0,0,0,-0.704,-0.7039,0,-0.6971,-0.697,-0.6969,-0.69,-0.6899,-0.6898,-0.6897,-0.6826,-0.6825,-0.6824,0,0,0,0,0,0,0,0,0,0,0,0,0,-0.7111,-0.711,-0.704,-0.7039,-0.7038,-0.6971,-0.697,-0.6969,-0.69,-0.6899,-0.6898,-0.6897,-0.6826,-0.6825,-0.6824,0,0,0,0,0,0,0,0,0,0,0,0,0,-0.7065,-0.711,-0.704,-0.6996,-0.6991,-0.6971,-0.697,-0.6969,-0.69,-0.6899,-0.6897,-0.6896,-0.6827,-0.6825,-0.6824,-0.6842,0,0,-0.6819,-0.6818,0,0,0,0,0,0,0,0,-0.7068,-0.7063,-0.7003,-0.6999,-0.6993,-0.6943,-0.6969,-0.6926,-0.6901,-0.6935,-0.6897,-0.6895,-0.6866,-0.6861,-0.6851,-0.6839,-0.6836,-0.6819,-0.6818,-0.6817,-0.6817,0,0,0,0,0,0,0,-0.7071,-0.7065,-0.7013,-0.7002,-0.6996,-0.6979,-0.6971,-0.6961,-0.6909,-0.6932,-0.6926,-0.6919,-0.6863,-0.6853,-0.6849,-0.6835,-0.6819,-0.6817,-0.6817,-0.6816,-0.6833,-0.6834,0,0,0,0,0,0,-0.7081,-0.7068,-0.7015,-0.7011,-0.7028,-0.6979,-0.697,-0.696,-0.6909,-0.69,-0.692,-0.6916,-0.6856,-0.6851,-0.6846,-0.6863,-0.6817,-0.6816,-0.6815,-0.6832,-0.6833,-0.6835,0,0,0,0,0,0,-0.7083,-0.7077,-0.7018,-0.7038,-0.7029,-0.6979,-0.6969,-0.696,-0.6949,-0.69,-0.6891,-0.692,-0.6855,-0.6848,-0.6843,-0.686,-0.6815,-0.6814,-0.683,-0.6832,-0.6834,-0.6899,0,0,0,0,0,0,-0.7085,-0.7078,-0.7085,-0.7039,-0.7028,-0.7016,-0.697,-0.6959,-0.6947,-0.6941,-0.6897,-0.6888,-0.6853,-0.6846,-0.6842,-0.6857,-0.6812,-0.6828,-0.6831,-0.6833,-0.6895,-0.6903,-0.6909,0,0,0,0,0,-0.7088,-0.7106,-0.7085,-0.7079,-0.7036,-0.7018,-0.7011,-0.6971,-0.6949,-0.6955,-0.6923,-0.689,-0.6859,-0.6846,-0.6841,-0.6856,-0.6827,-0.683,-0.6833,-0.6892,-0.6901,-0.6909,0,0,0,0,0,0,-0.7155,-0.7099,-0.7076,-0.7079,-0.7054,-0.7006,-0.7012,-0.6982,-0.6962,-0.6957,-0.6908,-0.6898,-0.6899,-0.6877,-0.6863,-0.687,-0.6838,-0.6841,-0.6885,-0.6893,-0.6901,-0.6905,-0.6811,0,0,0,0,0,-0.717,-0.716,-0.7112,-0.712,-0.7108,-0.7063,-0.7053,-0.7024,-0.6995,-0.6984,-0.6952,-0.6926,-0.691,-0.6901,-0.6884,-0.6892,-0.6881,-0.6899,-0.6907,-0.6913,-0.6915,-0.6917,-0.6924,-0.6845,-0.6845,-0.6845,0,0,-0.7201,-0.717,-0.7166,-0.7132,-0.7109,-0.7099,-0.7054,-0.7046,-0.7038,-0.6983,-0.6976,-0.6952,-0.6919,-0.6921,-0.692,-0.6902,-0.6935,-0.6917,-0.6922,-0.6921,-0.6921,-0.6928,-0.6935,-0.6847,-0.6847,-0.6846,0,0,-0.7253,-0.7228,-0.7231,-0.7209,-0.7175,-0.7144,-0.7145,-0.7102,-0.7084,-0.7076,-0.7034,-0.7025,-0.6999,-0.6977,-0.6962,-0.7006,-0.6974,-0.7002,-0.704,-0.7042,-0.7048,-0.7053,-0.7068,-0.7074,-0.7004,-0.7005,-0.7005,0,-0.7296,-0.728,-0.7237,-0.7231,-0.7217,-0.7167,-0.7169,-0.715,-0.7112,-0.7103,-0.7085,-0.7051,-0.7025,-0.702,-0.7031,-0.7021,-0.702,-0.7006,-0.7051,-0.7056,-0.706,-0.7073,-0.7079,-0.7008,-0.7008,-0.7007,-0.7007,0,-0.7334,-0.7324,-0.733,-0.7295,-0.7281,-0.728,-0.7236,-0.7228,-0.7201,-0.7172,-0.7165,-0.7133,-0.7108,-0.7105,-0.7078,-0.7096,-0.7086,-0.706,-0.7027,-0.7072,-0.7083,-0.7088,-0.7013,-0.7012,-0.7011,-0.701,0,0,-0.7425,-0.7365,-0.7368,-0.7351,-0.731,-0.7301,-0.7297,-0.7273,-0.7266,-0.7242,-0.7237,-0.7217,-0.7192,-0.7176,-0.7146,-0.7148,-0.7183,-0.7121,-0.7119,-0.7133,-0.7201,-0.722,-0.7226,-0.7163,-0.7164,-0.7164,-0.7203,0,-0.7468,-0.7458,-0.7419,-0.7421,-0.741,-0.7363,-0.736,-0.7334,-0.7307,-0.7295,-0.7265,-0.7251,-0.722,-0.721,-0.721,-0.7179,-0.7196,-0.7176,-0.7157,-0.7157,-0.7165,-0.7232,-0.7252,-0.7291,-0.7207,-0.7208,-0.7209,0,-0.7517,-0.7496,-0.7496,-0.7454,-0.7449,-0.7446,-0.7421,-0.7409,-0.7379,-0.7359,-0.7342,-0.7308,-0.7301,-0.7271,-0.7261,-0.7248,-0.7238,-0.7221,-0.7222,-0.7217,-0.7184,-0.7229,-0.7302,-0.7307,-0.7215,-0.7215,-0.7214,0,-0.7582,-0.7553,-0.755,-0.7537,-0.7488,-0.7487,-0.7467,-0.7435,-0.7423,-0.7401,-0.7392,-0.737,-0.7357,-0.7341,-0.7302,-0.7284,-0.7295,-0.7262,-0.7278,-0.7279,-0.7282,-0.7282,-0.7353,-0.7278,-0.7278,-0.7278,-0.7278,0,-0.7634,-0.7636,-0.7578,-0.7576,-0.7576,-0.7532,-0.7533,-0.7509,-0.7481,-0.7473,-0.7431,-0.7424,-0.7374,-0.7361,-0.7331,-0.7326,-0.7321,-0.7305,-0.7297,-0.7308,-0.731,-0.73,-0.7295,-0.7279,-0.7279,-0.7279,-0.7278,0,-0.7705,-0.7667,-0.766,-0.7614,-0.7603,-0.7606,-0.7567,-0.7562,-0.7534,-0.7524,-0.7519,-0.7474,-0.7457,-0.7417,-0.739,-0.7369,-0.7372,-0.7358,-0.7382,-0.7376,-0.7394,-0.7393,-0.746,-0.7467,-0.7389,-0.739,-0.7391,0,-0.774,-0.7741,-0.7695,-0.7687,-0.7668,-0.7655,-0.7642,-0.7599,-0.7587,-0.7553,-0.7553,-0.7532,-0.7513,-0.7488,-0.7453,-0.7432,-0.7416,-0.7441,-0.7412,-0.7423,-0.7415,-0.7414,-0.7414,-0.7447,-0.7448,-0.7449,-0.745,0,-0.7806,-0.7787,-0.777,-0.7747,-0.7733,-0.7712,-0.7689,-0.7685,-0.7636,-0.7625,-0.7607,-0.7592,-0.7564,-0.7544,-0.7517,-0.7496,-0.7465,-0.7459,-0.7462,-0.7472,-0.7486,-0.7478,-0.7398,-0.7458,-0.7457,-0.7456,-0.7456,-0.7455,-0.7859,-0.7857,-0.7825,-0.7807,-0.7785,-0.7765,-0.7759,-0.7729,-0.7713,-0.7687,-0.7662,-0.7647,-0.7616,-0.7577,-0.7558,-0.7545,-0.7529,-0.7532,-0.7533,-0.7534,-0.7539,-0.749,-0.754,-0.754,-0.7539,-0.7539,-0.7539,0,-0.7921,-0.7898,-0.7883,-0.7852,-0.7838,-0.781,-0.7784,-0.7774,-0.7761,-0.7735,-0.7717,-0.7696,-0.7677,-0.764,-0.7617,-0.7614,-0.7599,-0.7609,-0.7608,-0.7604,-0.7555,-0.7555,-0.7622,-0.7622,-0.7622,-0.7622,-0.7622,-0.7622,-0.7952,-0.7946,-0.7924,-0.7907,-0.7883,-0.7867,-0.7855,-0.7835,-0.7814,-0.7793,-0.7776,-0.7753,-0.7722,-0.7697,-0.7678,-0.7668,-0.7661,-0.7676,-0.7661,-0.7615,-0.7607,-0.76,-0.7599,-0.7675,-0.7675,-0.771,-0.7711,-0.7711]},{"header":{"parameterUnit":"m.s-1","parameterCategory":1,"la1":30.2991,"la2":30.254,"lo1":-89.0895,"lo2":-89.0444,"dy":0.0017,"dx":0.0017,"nx":28,"ny":28,"refTime":"2024-02-20T03:00:00:Z","depth":0,"parameterNumber":3,"parameterNumberName":"V-component_of_WINDS"},"data":[0,0,0,0,0,0,0,0,0,0,0,0,0,0,0,0,0,0,0,0,0,0,0,0,0,0,0,0,0,0,0,0,0,0,0,0,0,0,0,0,0,0,0,0,0,0,0,0,0,0,0,0,0,0,0,0,0,0,3.1986,3.1986,0,3.1934,3.1933,3.1933,3.1955,3.1956,3.1957,3.1959,3.1898,3.1896,3.1893,0,0,0,0,0,0,0,0,0,0,0,0,0,3.2101,3.2099,3.1986,3.1986,3.1985,3.1934,3.1933,3.1933,3.1955,3.1956,3.1958,3.1959,3.1899,3.1896,3.1893,0,0,0,0,0,0,0,0,0,0,0,0,0,3.205,3.2098,3.1986,3.199,3.199,3.1934,3.1933,3.1932,3.1954,3.1956,3.1958,3.196,3.19,3.1896,3.1892,3.1828,0,0,3.1879,3.1878,0,0,0,0,0,0,0,0,3.2053,3.2046,3.199,3.199,3.1989,3.1953,3.1952,3.1897,3.1954,3.1967,3.1959,3.1961,3.1915,3.1909,3.1895,3.1825,3.1822,3.1879,3.1876,3.1875,3.1873,0,0,0,0,0,0,0,3.2056,3.2048,3.1965,3.1989,3.1989,3.1993,3.1988,3.1941,3.1931,3.1966,3.1968,3.1962,3.1915,3.1899,3.1894,3.1822,3.1879,3.1875,3.1873,3.1871,3.1699,3.1697,0,0,0,0,0,0,3.206,3.2051,3.1967,3.1964,3.2027,3.1989,3.1983,3.1963,3.1931,3.1928,3.196,3.1963,3.1905,3.1899,3.1892,3.1816,3.1875,3.1871,3.1868,3.1701,3.1698,3.1696,0,0,0,0,0,0,3.2063,3.2053,3.1969,3.2008,3.1997,3.1985,3.1962,3.1961,3.1945,3.1927,3.1924,3.1947,3.1907,3.1898,3.1845,3.1814,3.1869,3.1865,3.1703,3.17,3.1697,3.1663,0,0,0,0,0,0,3.2066,3.2054,3.203,3.2007,3.1995,3.1924,3.196,3.1958,3.1939,3.1942,3.1913,3.191,3.1907,3.1851,3.184,3.181,3.1862,3.1706,3.1702,3.1698,3.1667,3.1659,3.1653,0,0,0,0,0,3.207,3.202,3.2028,3.2018,3.1966,3.1922,3.1915,3.1915,3.1936,3.1912,3.19,3.1911,3.1819,3.1845,3.1834,3.1801,3.1708,3.1703,3.1698,3.167,3.1661,3.1653,0,0,0,0,0,0,3.2036,3.2017,3.2026,3.1968,3.1947,3.1926,3.1895,3.1904,3.1875,3.1879,3.1878,3.1871,3.1817,3.1803,3.1832,3.1738,3.1767,3.1759,3.1749,3.174,3.1733,3.1738,3.1858,0,0,0,0,0,3.2023,3.1991,3.1975,3.1925,3.1915,3.1907,3.1888,3.189,3.1867,3.1857,3.1842,3.1818,3.1784,3.1761,3.1729,3.1666,3.166,3.1637,3.163,3.1625,3.1618,3.1586,3.1576,3.1681,3.1681,3.1681,0,0,3.1993,3.1979,3.1958,3.1918,3.1902,3.1868,3.1899,3.1861,3.1835,3.1851,3.1801,3.1789,3.1762,3.1704,3.1678,3.1691,3.1589,3.1619,3.1614,3.1611,3.158,3.157,3.1562,3.1677,3.1678,3.1679,0,0,3.1922,3.1908,3.1866,3.185,3.1827,3.1823,3.1813,3.1791,3.1785,3.1736,3.1747,3.1716,3.1657,3.1638,3.1621,3.1546,3.1556,3.1535,3.1498,3.1467,3.1458,3.1451,3.1426,3.1417,3.1529,3.1529,3.1529,0,3.1887,3.1839,3.1842,3.1805,3.1787,3.1803,3.1761,3.1744,3.171,3.1697,3.1714,3.1642,3.1625,3.1564,3.1547,3.1531,3.152,3.1538,3.146,3.1452,3.1446,3.1421,3.1412,3.1527,3.1527,3.1527,3.1528,0,3.1798,3.1764,3.1733,3.1704,3.1683,3.1642,3.1639,3.1617,3.1622,3.1615,3.1565,3.1546,3.1511,3.1497,3.1499,3.1436,3.1446,3.1461,3.1489,3.1434,3.1411,3.1401,3.1524,3.1525,3.1525,3.1526,0,0,3.1702,3.1679,3.1667,3.1655,3.1632,3.1605,3.1566,3.1535,3.1517,3.1493,3.146,3.1412,3.1427,3.1407,3.1407,3.138,3.1324,3.1398,3.1398,3.1386,3.1255,3.1245,3.1234,3.133,3.1328,3.1327,3.1258,0,3.1631,3.1565,3.1569,3.1506,3.1476,3.1492,3.1458,3.1439,3.1433,3.1405,3.1397,3.1363,3.1385,3.1373,3.1347,3.1336,3.1298,3.1341,3.1299,3.1297,3.1306,3.1222,3.121,3.1146,3.1249,3.1247,3.1246,0,3.1537,3.1515,3.1451,3.1436,3.1423,3.1392,3.1365,3.1338,3.1318,3.1316,3.1296,3.1301,3.1261,3.1291,3.1236,3.1266,3.1249,3.1241,3.1239,3.1235,3.1269,3.1216,3.1125,3.1116,3.1232,3.1233,3.1234,0,3.1476,3.1429,3.1386,3.1375,3.1355,3.1334,3.1324,3.1306,3.1288,3.1263,3.1252,3.1222,3.1205,3.1182,3.1179,3.1201,3.1124,3.1154,3.1121,3.1121,3.1103,3.1104,3.1009,3.1091,3.1092,3.1092,3.1092,0,3.1396,3.1356,3.1358,3.1331,3.1287,3.1292,3.1248,3.124,3.1224,3.1196,3.1206,3.1179,3.1177,3.1149,3.1146,3.1102,3.1094,3.109,3.109,3.1089,3.109,3.1078,3.1083,3.1089,3.109,3.109,3.1091,0,3.1319,3.1319,3.1273,3.1259,3.1255,3.1223,3.1211,3.1185,3.1181,3.1145,3.1136,3.1129,3.1096,3.1092,3.1052,3.1051,3.0998,3.1002,3.1006,3.1006,3.0974,3.0978,3.0868,3.0854,3.0945,3.0944,3.0944,0,3.1268,3.1238,3.1223,3.1207,3.1197,3.1168,3.1151,3.1155,3.1136,3.1113,3.1089,3.1059,3.1034,3.0981,3.0971,3.0941,3.0945,3.0909,3.094,3.0942,3.0946,3.0948,3.0945,3.0902,3.0901,3.0901,3.09,0,3.1178,3.118,3.1156,3.1133,3.1113,3.1094,3.1076,3.1061,3.1062,3.104,3.1009,3.099,3.0953,3.0922,3.0893,3.0881,3.0891,3.089,3.0881,3.0881,3.0885,3.0883,3.099,3.0893,3.0893,3.0894,3.0894,3.0895,3.1113,3.1089,3.1075,3.1049,3.1037,3.1021,3.0997,3.0991,3.0966,3.0937,3.094,3.0906,3.0888,3.0851,3.0838,3.081,3.0822,3.0808,3.0805,3.0802,3.0799,3.0889,3.0804,3.0805,3.0805,3.0805,3.0805,0,3.1024,3.1018,3.0994,3.097,3.095,3.0964,3.0945,3.0926,3.0897,3.0881,3.0858,3.0822,3.0793,3.0782,3.0754,3.0734,3.0737,3.0726,3.0727,3.0725,3.079,3.0801,3.0724,3.0724,3.0724,3.0724,3.0724,3.0724,3.0976,3.0936,3.0938,3.0892,3.0885,3.0854,3.0842,3.0827,3.0815,3.0776,3.0753,3.0748,3.0733,3.0705,3.0679,3.0676,3.0665,3.0652,3.0651,3.0712,3.072,3.0728,3.0739,3.065,3.065,3.0589,3.0589,3.0588]}]]